SCP
0 0 0 0 0 0 0 0 0 0 0 0 0 0 0 0 0 0 0 1 1 1 2 1 1 1 2 2 2 2 1 1 1 1 1 1 1 1 1 1 1 1 1 1 1 0 0 0 0
0 0 0 0 0 0 0 0 0 0 0 0 0 1 1 1 1 0 1 1 1 2 2 1 1 1 1 2 2 2 2 1 1 1 1 1 1 1 1 1 1 1 1 1 1 0 0 0 0
0 0 0 0 0 0 0 0 0 0 0 0 1 1 1 1 1 1 1 1 1 2 2 1 1 1 1 2 2 2 2 2 2 1 1 1 1 1 1 1 1 1 1 1 1 1 1 0 0
0 0 0 0 0 0 0 0 0 1 1 1 1 1 2 2 1 1 1 1 1 1 1 1 1 1 2 2 2 2 2 2 2 2 2 2 2 2 2 2 1 1 1 1 1 1 1 1 1
0 0 0 0 0 0 0 0 0 1 1 1 1 2 2 2 1 1 1 1 1 1 1 1 1 1 2 2 2 3 3 2 2 2 2 2 2 2 2 2 1 1 1 1 1 1 1 1 1
0 0 0 0 0 0 0 1 1 1 1 1 1 2 2 2 1 1 1 1 1 1 1 1 1 2 2 2 2 2 3 3 2 2 2 2 2 2 2 2 1 1 1 1 1 1 1 1 1
0 0 0 0 0 0 1 1 1 1 1 1 2 2 2 2 2 1 1 1 1 1 1 1 2 2 2 2 2 2 2 2 2 2 2 2 2 2 2 2 1 1 1 1 1 1 1 1 1
0 0 0 0 0 0 1 1 1 1 2 2 2 2 3 3 2 2 2 2 2 2 1 2 2 2 2 2 2 2 2 2 2 2 2 2 2 1 1 1 1 1 1 1 1 1 1 1 1
0 0 0 0 0 0 1 1 1 2 2 3 3 3 3 3 3 2 2 2 2 2 2 2 2 2 2 2 2 2 2 2 2 2 2 2 1 1 1 1 1 1 1 1 1 1 1 1 1
0 0 0 0 0 1 1 1 1 2 3 3 3 4 3 3 3 3 3 3 2 2 2 2 2 2 2 2 2 2 2 2 2 2 2 2 2 2 2 2 2 2 1 1 1 1 1 1 1
0 0 0 0 0 1 1 1 1 2 3 3 3 3 3 3 3 3 3 3 3 2 2 2 2 2 2 2 2 2 3 3 2 2 2 2 2 2 2 2 2 2 2 1 1 1 1 1 1
0 1 1 1 0 0 1 1 2 2 2 2 2 2 3 3 3 3 4 4 4 3 2 2 2 2 2 2 2 3 3 3 3 3 2 2 2 2 2 3 3 3 2 2 2 2 1 1 1
0 1 1 1 0 0 1 1 1 2 2 2 2 2 3 3 3 4 4 5 4 3 3 2 2 2 3 3 3 3 4 3 3 3 3 3 3 3 3 3 4 4 3 3 3 2 2 1 1
0 0 0 0 0 1 1 1 1 1 2 2 2 2 2 3 3 4 4 4 3 3 3 3 3 3 3 3 3 3 3 4 4 3 3 3 3 3 3 3 4 4 3 3 3 2 2 2 1
0 0 0 0 0 1 1 1 1 2 2 2 2 2 2 3 3 3 3 3 3 3 3 3 3 3 3 3 3 3 4 4 4 3 3 3 3 3 3 3 3 3 3 3 3 3 2 2 1
0 0 0 0 0 0 0 1 1 2 2 2 3 3 3 3 3 3 3 3 3 2 2 2 3 3 3 3 3 4 4 4 4 3 3 3 2 3 3 3 3 3 3 3 3 3 3 2 2
0 0 0 0 0 0 0 1 1 1 2 3 3 4 4 4 3 3 3 3 3 2 2 2 3 3 3 3 4 4 5 4 4 4 3 3 2 2 3 3 3 3 3 3 3 3 3 2 2
0 0 0 0 0 0 1 1 1 1 2 2 3 3 3 3 3 3 3 3 3 3 2 3 3 3 3 3 4 4 4 4 4 4 3 3 3 3 3 3 3 3 3 3 3 3 3 2 2
0 0 0 0 0 1 1 1 1 1 1 1 2 2 3 2 2 2 3 4 4 3 3 3 3 3 3 3 4 4 3 4 4 4 3 3 3 3 3 3 3 3 4 3 3 3 3 3 3
0 0 0 0 0 1 1 1 1 1 1 1 2 2 2 2 2 2 3 4 5 4 4 4 4 3 3 3 4 4 4 3 3 3 3 3 3 4 4 3 3 4 5 4 3 3 3 3 3
0 0 0 0 0 0 1 1 1 1 1 1 1 2 2 2 2 2 2 3 4 4 4 4 4 4 4 4 4 4 4 4 3 3 3 3 3 4 3 3 3 4 5 4 3 3 3 3 3
0 0 0 0 0 0 0 0 1 1 1 1 1 2 2 2 2 2 2 2 3 3 4 4 5 5 5 5 5 5 5 4 3 3 3 3 3 3 3 3 3 3 4 4 3 3 3 2 2
0 0 0 0 0 0 0 0 1 1 1 1 2 2 2 1 1 2 2 2 3 3 3 4 5 5 5 5 5 5 4 3 3 3 2 2 2 2 2 2 2 3 3 3 3 3 3 3 3
0 0 0 0 0 0 0 0 1 1 1 1 2 2 1 1 1 1 1 2 2 2 3 4 4 5 4 4 4 4 3 3 3 2 2 2 1 1 2 2 2 2 2 3 3 3 3 3 3
0 0 0 0 0 0 0 0 1 1 1 1 2 2 1 1 1 0 1 1 1 1 2 2 3 4 4 3 3 2 2 2 2 2 1 1 1 1 1 1 1 1 2 2 2 2 3 4 4
0 0 0 0 0 0 0 0 1 1 1 2 2 2 1 1 0 0 0 0 0 0 1 1 2 2 3 2 2 1 1 1 1 1 1 1 1 1 1 1 1 1 1 1 1 1 2 3 4
0 0 0 0 0 0 0 0 1 1 1 2 2 1 1 1 0 0 0 0 0 0 0 0 1 1 1 1 1 1 1 1 0 0 0 0 1 1 1 1 1 0 1 1 1 1 2 3 3
0 0 0 0 0 0 0 0 1 1 1 2 1 1 1 1 0 0 0 0 0 0 0 0 0 0 0 1 1 1 0 0 0 0 0 1 1 1 1 1 0 0 1 1 1 1 2 3 4
0 0 0 0 0 0 0 0 1 1 1 2 1 1 1 1 1 0 0 0 0 0 0 0 0 0 0 0 0 0 0 0 0 0 0 1 1 1 1 0 0 0 1 1 1 2 3 4 5
0 0 0 0 0 0 0 0 1 1 1 1 1 1 1 1 1 1 0 0 0 0 0 0 0 0 0 0 0 0 0 0 0 0 0 0 1 1 0 0 0 0 0 1 2 2 3 5 6
Wind_Speed
8 7 7 6 8 8 7 4 1 2 1 3 2 2 2 5 6 7 6 11 14 17 18 17 13 13 14 14 15 15 16 16 16 15 15 14 13 12 12 11 10 10 10 10 10 11 11 11 11
6 6 7 7 9 9 7 4 2 1 3 3 1 1 2 5 7 7 8 12 16 17 17 16 15 14 14 14 15 15 16 16 16 15 15 15 14 12 11 11 11 10 10 10 10 11 11 11 11
6 7 7 7 10 9 5 4 1 1 1 1 2 2 4 6 6 5 9 15 16 15 15 17 15 14 14 14 14 15 15 15 15 15 15 14 13 12 11 11 11 10 10 10 10 10 10 10 10
7 7 7 9 11 6 1 1 2 2 1 3 4 6 7 7 4 8 14 15 16 15 15 17 13 14 14 14 13 13 14 14 14 14 13 13 12 11 11 11 10 10 10 9 10 10 10 10 10
7 7 9 10 9 3 2 2 3 2 2 4 4 7 8 6 9 13 15 15 14 14 14 17 12 13 13 13 12 12 12 12 12 12 12 11 11 10 10 10 10 10 9 9 10 9 9 9 9
7 7 9 10 8 5 2 1 2 3 4 5 5 7 8 7 10 13 14 14 14 14 14 15 13 12 11 12 11 11 11 10 10 10 10 10 10 9 9 9 9 9 9 9 9 9 9 8 8
8 8 8 7 7 6 3 1 1 3 5 4 3 7 9 9 9 12 13 13 13 13 13 14 14 12 11 9 9 9 9 9 9 9 9 9 9 9 9 9 9 9 8 9 9 9 9 8 7
6 6 8 7 7 6 4 3 2 1 5 4 1 6 9 10 10 12 12 12 12 11 11 12 12 12 12 11 10 9 9 9 9 9 9 9 9 9 9 9 8 8 8 9 9 9 8 8 7
7 8 7 6 5 6 5 5 5 4 6 7 7 9 12 14 13 13 12 11 10 9 9 9 10 10 10 10 11 10 10 9 9 9 9 9 9 9 9 8 8 8 8 8 9 8 8 8 8
8 6 4 3 2 4 5 5 5 6 9 10 11 13 13 12 11 11 11 11 10 9 8 7 7 8 8 6 8 7 8 8 8 7 8 7 5 4 5 8 8 8 8 8 9 9 9 10 8
6 3 4 4 3 2 5 5 4 5 7 7 9 12 12 11 10 8 9 9 8 8 7 6 6 6 5 4 5 4 4 5 6 6 6 5 4 4 4 4 7 8 9 8 8 10 9 8 6
4 3 2 3 3 3 4 5 6 7 7 8 9 10 11 10 9 7 8 7 6 6 6 5 6 5 4 3 4 4 3 3 3 4 4 4 3 4 4 4 4 5 4 5 6 5 7 7 7
6 5 4 3 3 3 5 6 7 9 7 8 10 10 9 9 8 7 7 6 5 4 4 4 4 4 3 3 3 3 2 3 3 2 3 3 3 4 4 3 4 5 4 5 6 6 7 7 8
5 5 5 6 6 6 8 8 6 7 7 9 10 9 8 8 8 7 6 5 4 4 3 2 2 3 3 3 2 2 2 2 2 1 1 2 3 3 3 4 4 5 4 5 5 6 6 6 6
5 7 9 7 7 8 9 9 7 6 7 9 9 9 9 8 8 7 5 4 4 3 3 2 2 2 2 2 2 1 1 1 1 1 1 2 3 2 3 4 4 4 4 5 5 5 5 5 6
9 10 10 8 7 7 9 9 8 5 7 8 8 9 9 9 8 7 6 5 4 3 3 3 2 2 1 1 1 1 0 0 0 1 1 2 3 3 3 3 3 3 3 4 4 4 4 5 4
10 9 10 10 6 6 7 9 8 5 7 8 7 7 8 8 9 8 7 6 5 4 3 3 3 2 1 1 1 1 1 0 1 1 1 2 3 3 3 3 2 3 3 4 4 4 4 5 4
8 8 7 7 6 6 5 9 9 6 6 7 7 6 7 7 8 7 7 7 6 5 4 4 4 3 2 1 1 1 1 0 1 1 2 2 2 3 3 2 2 3 3 3 3 4 4 3 3
3 4 6 6 4 5 6 9 9 7 7 6 6 5 5 7 7 7 7 7 7 6 5 5 4 4 2 1 1 0 1 1 1 1 2 2 2 2 2 2 2 3 3 4 4 4 5 4 3
5 6 7 7 5 3 7 8 8 7 6 6 6 6 5 6 6 7 7 8 8 8 6 5 5 4 3 2 1 0 0 1 2 2 3 4 3 3 2 2 2 2 3 3 3 3 3 3 4
6 5 4 5 6 6 7 9 10 8 7 6 6 5 5 5 5 6 7 8 8 8 7 5 5 5 4 3 1 1 1 1 1 1 2 4 4 3 3 2 2 2 2 2 3 4 4 4 4
6 3 3 6 8 6 8 6 10 11 9 8 7 6 5 5 5 6 6 7 8 8 7 7 6 6 5 4 3 3 2 2 2 2 2 3 3 4 3 3 2 2 2 2 2 3 3 4 4
1 3 4 6 7 5 7 8 5 10 9 10 9 7 6 6 6 6 6 7 7 7 7 6 6 6 6 5 4 3 3 2 2 2 3 3 3 4 4 4 3 2 2 2 2 2 3 3 4
5 6 5 7 8 8 4 7 3 6 6 8 10 8 7 7 7 6 6 6 6 7 7 7 6 7 7 6 5 5 4 3 3 3 2 2 2 3 5 4 4 3 3 2 2 2 2 2 3
8 7 6 7 7 4 3 6 1 5 2 5 9 10 9 8 7 6 5 5 6 7 7 7 7 7 7 6 6 5 4 4 3 3 3 3 3 3 5 4 4 3 3 3 2 2 1 1 2
6 8 7 6 5 2 5 4 4 5 4 5 8 10 10 8 7 6 6 5 5 6 6 6 7 7 7 6 6 5 5 4 4 4 4 4 3 4 4 4 4 4 4 3 3 2 2 1 0
6 6 6 8 8 7 3 3 6 6 6 7 9 10 10 8 8 7 6 5 5 5 6 6 6 6 6 6 5 5 5 5 5 4 4 4 4 3 4 4 4 4 4 4 3 3 3 2 1
5 3 4 7 6 7 4 4 2 8 8 9 10 10 10 9 8 7 6 6 5 5 5 5 6 6 6 5 5 5 5 5 5 5 6 5 5 5 5 5 5 5 5 4 4 3 4 3 3
6 6 6 6 6 7 6 1 5 3 7 10 11 11 11 10 9 7 6 6 5 5 5 5 5 5 5 5 5 6 5 5 5 5 5 5 5 6 6 6 6 6 6 5 4 5 4 4 4
6 5 6 6 6 7 7 1 6 4 5 9 11 11 10 10 9 8 7 6 5 5 5 5 5 5 5 5 5 5 5 6 6 6 6 6 6 6 6 6 7 7 7 6 6 6 6 6 6
Wind_Direction
226 218 224 231 234 230 223 166 139 128 80 28 5 334 15 23 12 49 92 140 137 137 137 144 140 139 137 137 139 141 141 143 144 144 144 144 144 143 142 141 138 135 133 131 129 128 128 130 130
207 203 220 231 242 223 194 164 180 14 16 1 55 143 113 74 52 82 118 133 139 137 143 146 139 139 137 136 137 140 142 144 145 146 147 147 147 146 146 145 143 141 140 138 136 134 133 134 134
197 223 232 226 233 237 163 119 79 16 1 204 117 89 68 57 68 97 123 139 138 137 142 136 143 139 138 136 137 139 142 144 145 148 149 149 149 149 150 150 149 147 146 144 142 140 140 141 142
198 204 224 235 224 224 284 66 349 295 140 153 142 108 83 43 49 110 131 140 137 140 142 136 145 139 138 138 137 139 142 143 146 148 149 150 151 151 152 154 154 152 151 150 147 146 146 147 149
225 219 212 220 221 187 216 318 300 249 170 146 149 122 93 62 90 119 134 139 141 140 138 137 140 138 140 141 140 140 141 142 145 147 148 149 150 152 155 158 159 158 157 157 153 152 151 152 154
207 220 218 209 194 175 179 228 242 210 162 144 149 127 91 94 111 128 137 142 140 138 136 133 138 142 144 145 143 141 140 140 142 144 146 146 148 153 159 162 164 164 163 163 159 159 160 161 163
225 220 222 202 180 164 128 112 206 174 151 123 143 127 113 108 120 132 136 139 138 138 136 143 150 150 149 145 144 142 140 139 139 141 145 150 154 160 165 165 165 166 167 168 166 166 169 169 172
251 228 202 193 184 145 118 129 98 92 97 80 112 136 124 124 133 132 131 134 136 140 143 147 152 155 163 161 156 152 149 148 148 150 154 159 165 172 175 180 169 171 171 172 172 173 176 177 180
238 228 188 175 175 131 125 128 102 100 103 86 62 70 105 129 135 134 132 134 136 139 145 151 153 158 168 163 154 164 164 164 169 169 167 180 190 184 183 186 162 179 181 181 180 181 185 187 184
225 209 145 113 124 121 118 108 109 135 118 106 95 92 111 128 136 138 136 138 143 146 151 150 151 159 171 163 156 178 181 172 192 180 182 199 198 198 200 145 172 188 191 192 190 190 193 209 194
211 184 125 136 116 128 123 105 109 131 107 99 111 117 124 129 135 136 133 138 143 147 148 150 150 158 168 168 168 178 187 174 193 185 191 206 205 202 205 181 183 194 196 201 188 198 209 211 209
178 145 155 129 135 155 128 111 84 72 81 84 99 114 122 127 127 129 126 124 130 139 145 151 148 154 168 173 177 183 188 179 190 178 205 209 211 215 211 209 206 204 203 206 205 214 213 217 212
180 142 144 154 157 137 126 110 98 87 85 95 103 109 111 114 111 103 100 106 109 112 125 143 149 146 158 169 194 176 182 179 180 188 206 234 236 234 227 225 220 222 212 208 214 217 213 217 215
144 146 149 151 142 151 138 123 114 91 101 106 104 102 100 98 93 91 90 90 92 96 103 114 144 142 153 161 175 178 180 187 201 176 200 232 249 250 247 241 235 235 229 225 223 217 216 222 222
161 164 152 148 154 151 149 121 95 104 116 110 105 98 91 84 78 74 72 74 81 86 86 102 123 114 137 164 179 176 190 194 203 173 221 234 245 252 250 243 237 243 235 228 230 223 218 219 218
186 187 159 137 161 165 212 131 108 129 130 116 109 103 96 82 74 63 59 59 59 75 84 82 83 95 119 131 206 200 243 206 221 237 244 252 252 247 248 244 241 240 233 224 218 217 218 221 219
191 182 148 138 151 174 213 124 126 140 135 123 116 108 100 88 71 58 50 52 55 57 68 75 71 73 86 127 146 145 106 343 296 282 284 275 261 252 251 250 249 231 228 223 222 207 218 216 206
170 162 156 143 139 180 165 129 137 146 148 136 123 111 102 87 70 59 51 49 53 52 50 51 63 55 51 101 126 119 119 116 1 330 326 308 294 270 254 244 255 239 230 224 225 219 217 217 197
167 179 152 118 129 186 158 143 148 156 162 146 132 122 110 92 79 67 55 49 47 48 46 39 39 40 31 40 41 67 94 61 41 28 13 350 335 303 278 276 261 255 242 236 226 223 207 200 183
196 189 154 130 132 197 155 150 153 164 167 155 148 140 122 106 89 71 58 50 44 39 39 40 33 29 23 26 38 60 70 73 55 32 33 17 357 344 314 298 285 276 253 238 227 218 217 202 191
207 218 169 145 147 173 178 176 172 170 168 163 157 144 130 111 93 76 61 52 46 38 29 30 30 28 24 19 50 94 110 100 77 58 48 28 14 14 349 339 313 297 283 257 234 222 218 209 204
192 170 185 179 205 187 215 232 172 172 180 182 173 158 141 122 102 81 66 54 46 38 34 32 34 33 27 23 33 48 63 61 34 19 49 44 28 18 6 2 346 314 299 291 267 237 231 216 210
114 147 199 218 240 233 214 257 155 169 194 193 181 167 151 129 110 89 70 57 49 41 37 36 41 41 34 30 30 36 49 51 54 47 53 39 33 23 13 7 356 334 314 308 299 272 248 226 220
155 175 191 221 234 236 219 261 202 167 207 182 168 163 147 131 116 97 81 67 53 46 43 40 43 41 36 34 34 41 51 53 58 49 43 38 35 28 20 13 5 351 346 338 315 280 244 248 237
210 226 224 220 224 225 145 253 56 96 112 162 160 155 146 138 126 112 96 78 62 50 43 40 44 43 39 41 39 42 49 59 58 43 43 37 33 31 22 13 12 7 1 351 337 311 276 245 231
217 250 264 270 272 261 181 238 88 96 108 135 140 143 145 142 131 117 102 90 75 59 48 43 44 44 43 42 39 37 40 46 48 41 38 39 30 31 23 20 26 24 14 10 3 1 358 4 238
220 239 288 278 268 270 231 167 134 130 136 142 142 145 150 147 136 121 108 94 81 68 56 49 48 48 46 47 49 47 48 50 50 44 39 42 37 35 35 33 31 28 23 25 25 38 29 29 24
283 264 245 262 270 269 251 233 184 164 170 166 165 162 155 148 136 126 115 103 92 81 70 60 54 51 48 46 46 51 51 52 52 48 45 40 38 40 42 40 39 36 33 38 44 54 45 54 51
199 215 247 263 280 282 280 313 68 146 168 170 169 163 156 149 142 134 123 115 108 97 84 73 64 58 51 52 53 54 53 50 52 53 49 45 46 45 45 44 44 43 40 42 50 56 55 58 62
255 246 240 259 262 265 283 360 90 117 148 158 154 151 150 148 143 138 133 130 123 105 90 79 70 66 60 60 61 58 59 56 54 52 49 49 51 50 49 49 49 46 45 45 50 54 53 56 60